カタログに戻る

YAM-10

運用中アマチュア無線SSO
NORAD 64580·PAYLOAD·🇺🇸 United States

打ち上げ Jun 23, 2025 から Vandenberg Space Force Base

Loading…

次のパス (今後24時間)

TLE

最新Source: Space-Track

元期: Sep 14, 2026, 17:57 UTC

1 64580U 25135BE  26257.74805852  .00001360  00000-0  13943-3 0  9993
2 64580  97.7802  10.4044 0004385  67.8671 292.3013 14.92070050 67210

AllMySatでYAM-10をリアルタイム追跡

Download on the App Store